Regional Weather Roundup
Issued by NWS

Home | Current Version | Previous Version | Text Only | Print | Product List | Glossary Off
Versions: 1 2 3 4 5 6 7 8 9 10 11 12 13 14 15 16 17 18 19 20 21 22 23 24 25 26 27 28 29 30 31 32 33 34 35 36 37 38 39 40 41 42 43 44 45 46 47 48 49 50

181
ASUS45 KBOU 061707
RWRCO

WEATHER ROUNDUP FOR COLORADO
NATIONAL WEATHER SERVICE DENVER/BOULDER CO
1000 AM MST TUE DEC 06 2016

NOTE: "FAIR" INDICATES FEW OR NO CLOUDS BELOW 12000 FEET WITH NO
SIGNIFICANT WEATHER AND/OR OBSTRUCTIONS TO VISIBILITY.

COZ001>005-013-030-031-061800-
...NORTHWEST COLORADO...

CITY           SKY/WX    TMP DP  RH WIND       PRES   REMARKS
CRAIG          CLOUDY    13  -3  49 E13       29.89F WCI  -2
HAYDEN         FAIR       7  -6  56 E13       29.87F WCI  -9
MEEKER         FAIR      17   3  54 CALM      29.85F
MOUNT WERNER   NOT AVBL
STEAMBOAT SPGS CLOUDY     2  -8  63 CALM      29.87F
WALDEN           N/A      0 -13  55 CALM      29.83S
$$

COZ006>008-011-061800-
...WEST CENTRAL VALLEYS...

CITY           SKY/WX    TMP DP  RH WIND       PRES   REMARKS
GRAND JUNCTION CLOUDY    27   8  44 E10       29.88F WCI  17
MONTROSE       FAIR      24   7  48 SE5       29.90F WCI  18
EAGLE          PTSUNNY   18   3  53 W3        29.89F
RIFLE          PTSUNNY   22   9  57 CALM      29.90F
DELTA          NOT AVBL
NUCLA          NOT AVBL
$$

COZ017>023-064>068-061800-
...SOUTHWEST COLORADO...

CITY           SKY/WX    TMP DP  RH WIND       PRES   REMARKS
DURANGO        FAIR      30  18  60 SE7       29.89S WCI  23
CORTEZ         FAIR      33  21  61 W3        29.86S
PAGOSA SPRINGS FAIR      29  14  53 NE5       29.90F WCI  24
TELLURIDE      CLOUDY    27  13  55 CALM      29.87S
WOLF CREEK PAS LGT SNOW  10   9  92 S17G24    29.89S WCI  -7
$$

COZ009-010-012-014-032>034-037-058>063-061800-
...CENTRAL COLORADO...

CITY           SKY/WX    TMP DP  RH WIND       PRES   REMARKS
ASPEN          PTSUNNY   16   8  71 CALM      29.80F
BUENA VISTA    FAIR      25   0  33 SE9       29.78F WCI  15
COPPER MTN     NOT AVBL
BERTHOUD PASS  LGT SNOW   3  -9  55 W18G32    29.65F WCI -17
COTTONWOOD PAS CLOUDY    28   1  31 SW9       29.76S WCI  20
GUNNISON       FLURRIES  14   6  70 CALM      29.87F
KREMMLING      FAIR      16   5  62 CALM      29.88F
LEADVILLE      CLOUDY    13   2  61 CALM      29.75R
MONARCH PASS   CLOUDY    10   7  85 SW26G36   29.86R WCI -11
SALIDA         FAIR      19   1  44 SE17G26   29.89F WCI   4
SUNLIGHT       CLOUDY    12   7  79 SW16G33   29.78S HAZE    WCI  -4
WILKERSON PASS FAIR      16   1  53 SW12G21   29.76S WCI   3
$$

COZ069>075-061800-
...SAN LUIS VALLEY/SANGRE DE CRISTO MOUNTAINS...

CITY           SKY/WX    TMP DP  RH WIND       PRES   REMARKS
ALAMOSA        FAIR      34  13  41 S15       29.84F WCI  24
LA VETA PASS   FAIR      27   1  33 N12G30    29.84S WCI  16
SAGUACHE       PTSUNNY   25   5  42 CALM      29.86R
$$

COZ035-036-038>040-061800-
...NORTHERN COLORADO FRONT RANGE...

CITY           SKY/WX    TMP DP  RH WIND       PRES   REMARKS
DENVER INTL AP FAIR      24   2  38 S22G29    29.92R WCI   9
DMNS CITY PARK   N/A     25   1  35 MISG      29.92S
AURORA         MOSUNNY   24   3  40 S13       29.91S WCI  12
FRONT RANGE AP MOSUNNY   27   3  36 SE21G28   29.93S WCI  13
ERIE MUNI ARPT FAIR      25  -1  33 SW3       29.94S
BOULDER MUN AP FAIR      25   0  33 N3        29.93S
CENTENNIAL     FAIR      23   3  42 SE12      29.89S WCI  12
BROOMFIELD     MOSUNNY   23   0  36 E6        29.91S WCI  16
FORT COLLINS   FAIR      19   1  45 N7        29.96S WCI  10
LONGMONT       FAIR      28   1  30 CALM      29.96F
$$

COZ041-046-047-076>085-087-088-061800-
...PIKES PEAK/PALMER DIVIDE AND SOUTHERN FOOTHILLS...

CITY           SKY/WX    TMP DP  RH WIND       PRES   REMARKS
COLO. SPRINGS  FAIR      19   1  45 S21       29.94S WCI   3
A. F. ACADEMY  FAIR      19   0  43 S21       29.89S WCI   2
SCHRIEVER AFB  NOT AVBL
ELLICOTT       FAIR     N/A N/A N/A SW15        N/A
FALCON         FAIR      17   0  47 S17G25    29.90F WCI   1
FORT CARSON    FAIR      22   0  39 SE24      29.92F WCI   5
LIMON          FAIR      21  -1  38 S7        29.98S WCI  12
MONUMENT HILL  FAIR      18   1  49 S21G26    29.86F WCI   1
TRINIDAD       FAIR      26  -1  31 NE9       29.95F WCI  17
$$

COZ042>045-048>051-090-091-061800-
...NORTHEAST COLORADO...

CITY           SKY/WX    TMP DP  RH WIND       PRES   REMARKS
GREELEY ARPT   FAIR      23   3  42 SE6       29.99S WCI  16
AKRON          FAIR      21  -4  33 W6        29.99S WCI  13
BURLINGTON     FAIR      24   4  42 SW6       30.05R WCI  17
WRAY           FAIR      30   3  31 W12       30.05F WCI  21
STERLING       PTSUNNY   27  -2  28 W10       30.01F WCI  17
HOLYOKE        FAIR      30   3  31 NW9G16    30.03S WCI  22
FORT MORGAN    FAIR      23   4  44 SW8       30.00F WCI  14
$$

COZ086-089-092>099-061800-
...SOUTHEAST COLORADO...

CITY           SKY/WX    TMP DP  RH WIND       PRES   REMARKS
PUEBLO         FAIR      23   6  48 SE5       30.02F WCI  17
LA JUNTA       FAIR      25   9  50 SE5       30.06F WCI  19
LAMAR          FAIR      26   8  46 VRB3      30.09R
SPRINGFIELD      N/A     25   2  37 VRB5      30.07R WCI  19
$$




USA.gov is the U.S. government's official web portal to all federal, state and local government web resources and services.